When you browse on this site, cookies collect data to enhance your experience and personalize the content and advertising you see.
Visit our Privacy Policy to learn more. By continuing to use the site, you agree to this use of cookies and data.
  • en France
  • Liste des pays
  • À 7 jours
  • Température de l'eau
  • Carte météo
  • Widgets météo
  • user-avatar
    Se connecter

    Météo par heure à Duchan

    Ce jour, 7 Avril, Mardi

    Heure Température Précipitation Vent Pression Humidité
    00:00 +26°C° 0 mm 1 m/s 757 mmHg 23%
    01:00 +26°C° 0 mm 2 m/s 756 mmHg 22%
    02:00 +26°C° 0 mm 2 m/s 756 mmHg 21%
    03:00 +26°C° 0 mm 2 m/s 755 mmHg 20%
    04:00 +26°C° 0 mm 2 m/s 756 mmHg 21%
    05:00 +26°C° 0 mm 2 m/s 756 mmHg 21%
    06:00 +26°C° 0 mm 2 m/s 757 mmHg 22%
    07:00 +28°C° 0 mm 2 m/s 757 mmHg 19%
    08:00 +31°C° 0 mm 2 m/s 757 mmHg 17%
    09:00 +34°C° 0 mm 2 m/s 757 mmHg 14%
    10:00 +35°C° 0 mm 2 m/s 756 mmHg 14%
    11:00 +36°C° 0 mm 2 m/s 756 mmHg 13%
    12:00 +37°C° 0 mm 2 m/s 756 mmHg 12%
    13:00 +36°C° 0 mm 1 m/s 755 mmHg 12%
    14:00 +37°C° 0 mm 1 m/s 754 mmHg 12%
    15:00 +37°C° 0 mm 1 m/s 753 mmHg 12%
    16:00 +36°C° 0 mm 2 m/s 753 mmHg 16%
    17:00 +34°C° 0 mm 3 m/s 753 mmHg 20%
    18:00 +32°C° 0 mm 4 m/s 753 mmHg 24%
    19:00 +30°C° 0 mm 5 m/s 753 mmHg 25%
    20:00 +30°C° 0 mm 5 m/s 754 mmHg 26%
    21:00 +29°C° 0 mm 6 m/s 754 mmHg 28%
    22:00 +29°C° 0 mm 6 m/s 754 mmHg 27%
    23:00 +29°C° 0 mm 5 m/s 753 mmHg 27%

    Demain, 8 Avril, Mercredi

    Heure Température Précipitation Vent Pression Humidité
    00:00 +28°C° 0 mm 5 m/s 753 mmHg 27%
    01:00 +28°C° 0 mm 5 m/s 753 mmHg 27%
    02:00 +28°C° 0 mm 5 m/s 753 mmHg 27%
    03:00 +28°C° 0 mm 5 m/s 752 mmHg 26%
    04:00 +28°C° 0 mm 5 m/s 753 mmHg 26%
    05:00 +28°C° 0 mm 5 m/s 753 mmHg 25%
    06:00 +28°C° 0 mm 4 m/s 754 mmHg 24%
    07:00 +32°C° 0 mm 4 m/s 754 mmHg 20%
    08:00 +34°C° 0 mm 4 m/s 754 mmHg 17%
    09:00 +36°C° 0 mm 4 m/s 754 mmHg 13%
    10:00 +38°C° 0 mm 4 m/s 754 mmHg 12%
    11:00 +41°C° 0 mm 5 m/s 754 mmHg 11%
    12:00 +43°C° 0 mm 5 m/s 753 mmHg 10%
    13:00 +43°C° 0 mm 5 m/s 753 mmHg 10%
    14:00 +44°C° 0 mm 4 m/s 752 mmHg 10%
    15:00 +44°C° 0 mm 3 m/s 751 mmHg 10%
    16:00 +43°C° 0 mm 4 m/s 751 mmHg 11%
    17:00 +41°C° 0 mm 5 m/s 751 mmHg 13%
    18:00 +40°C° 0 mm 6 m/s 751 mmHg 14%
    19:00 +38°C° 0 mm 7 m/s 751 mmHg 17%
    20:00 +36°C° 0 mm 7 m/s 752 mmHg 21%
    21:00 +34°C° 0 mm 7 m/s 752 mmHg 24%
    22:00 +34°C° 0 mm 7 m/s 752 mmHg 25%
    23:00 +34°C° 0 mm 6 m/s 752 mmHg 26%

    Après-demain, 9 Avril, Jeudi

    Heure Température Précipitation Vent Pression Humidité
    00:00 +33°C° 0 mm 6 m/s 752 mmHg 27%
    01:00 +33°C° 0 mm 6 m/s 751 mmHg 26%
    02:00 +33°C° 0 mm 6 m/s 751 mmHg 25%
    03:00 +33°C° 0 mm 6 m/s 751 mmHg 24%
    04:00 +33°C° 0 mm 5 m/s 752 mmHg 22%
    05:00 +33°C° 0 mm 5 m/s 752 mmHg 21%
    06:00 +33°C° 0 mm 5 m/s 753 mmHg 19%
    07:00 +35°C° 0 mm 5 m/s 753 mmHg 17%
    08:00 +37°C° 0 mm 4 m/s 753 mmHg 14%
    09:00 +40°C° 0 mm 4 m/s 754 mmHg 12%
    10:00 +42°C° 0 mm 4 m/s 753 mmHg 11%
    11:00 +45°C° 0 mm 5 m/s 753 mmHg 9%
    12:00 +46°C° 0 mm 5 m/s 753 mmHg 8%
    13:00 +46°C° 0 mm 5 m/s 752 mmHg 8%
    14:00 +47°C° 0 mm 5 m/s 752 mmHg 8%
    15:00 +47°C° 0 mm 5 m/s 751 mmHg 8%
    16:00 +43°C° 0 mm 5 m/s 751 mmHg 12%
    17:00 +41°C° 0 mm 6 m/s 751 mmHg 16%
    18:00 +38°C° 0 mm 7 m/s 751 mmHg 21%
    19:00 +36°C° 0 mm 7 m/s 751 mmHg 24%
    20:00 +35°C° 0 mm 8 m/s 752 mmHg 28%
    21:00 +34°C° 0 mm 8 m/s 752 mmHg 32%
    22:00 +33°C° 0 mm 7 m/s 752 mmHg 33%
    23:00 +33°C° 0 mm 7 m/s 752 mmHg 33%

    10 Avril, Vendredi

    Heure Température Précipitation Vent Pression Humidité
    00:00 +33°C° 0 mm 6 m/s 751 mmHg 34%
    01:00 +33°C° 0 mm 6 m/s 751 mmHg 34%
    02:00 +32°C° 0 mm 6 m/s 751 mmHg 34%
    03:00 +32°C° 0 mm 6 m/s 750 mmHg 35%
    04:00 +32°C° 0 mm 6 m/s 751 mmHg 34%
    05:00 +32°C° 0 mm 6 m/s 751 mmHg 33%
    06:00 +32°C° 0 mm 6 m/s 752 mmHg 32%
    07:00 +35°C° 0 mm 7 m/s 752 mmHg 26%
    08:00 +38°C° 0 mm 7 m/s 752 mmHg 21%
    09:00 +41°C° 0 mm 8 m/s 753 mmHg 15%
    10:00 +43°C° 0 mm 7 m/s 752 mmHg 12%
    11:00 +45°C° 0 mm 7 m/s 752 mmHg 10%
    12:00 +46°C° 0 mm 6 m/s 751 mmHg 8%
    13:00 +46°C° 0 mm 6 m/s 751 mmHg 8%
    14:00 +46°C° 0 mm 6 m/s 750 mmHg 7%
    15:00 +46°C° 0 mm 5 m/s 750 mmHg 7%
    16:00 +45°C° 0 mm 5 m/s 750 mmHg 8%
    17:00 +43°C° 0 mm 5 m/s 750 mmHg 8%
    18:00 +41°C° 0 mm 5 m/s 750 mmHg 9%
    19:00 +40°C° 0 mm 5 m/s 750 mmHg 11%
    20:00 +39°C° 0 mm 6 m/s 750 mmHg 14%
    21:00 +36°C° 0 mm 7 m/s 751 mmHg 16%
    22:00 +35°C° 0 mm 7 m/s 750 mmHg 19%
    23:00 +35°C° 0 mm 7 m/s 750 mmHg 22%

    11 Avril, Samedi

    Heure Température Précipitation Vent Pression Humidité
    00:00 +34°C° 0 mm 8 m/s 750 mmHg 25%
    01:00 +34°C° 0 mm 8 m/s 750 mmHg 21%
    02:00 +34°C° 0 mm 7 m/s 750 mmHg 18%
    03:00 +35°C° 0 mm 7 m/s 750 mmHg 15%
    04:00 +34°C° 0 mm 7 m/s 750 mmHg 15%
    05:00 +34°C° 0 mm 7 m/s 750 mmHg 15%
    06:00 +34°C° 0 mm 7 m/s 751 mmHg 15%
    07:00 +37°C° 0 mm 8 m/s 751 mmHg 14%
    08:00 +39°C° 0 mm 9 m/s 751 mmHg 12%
    09:00 +42°C° 0 mm 10 m/s 752 mmHg 11%
    10:00 +44°C° 0 mm 9 m/s 751 mmHg 10%
    11:00 +45°C° 0 mm 9 m/s 751 mmHg 9%
    12:00 +47°C° 0 mm 9 m/s 751 mmHg 8%
    13:00 +47°C° 0 mm 9 m/s 750 mmHg 8%
    14:00 +46°C° 0 mm 8 m/s 750 mmHg 9%
    15:00 +46°C° 0 mm 8 m/s 749 mmHg 9%
    16:00 +44°C° 0 mm 7 m/s 749 mmHg 10%
    17:00 +42°C° 0 mm 6 m/s 749 mmHg 11%
    18:00 +41°C° 0 mm 6 m/s 750 mmHg 12%
    19:00 +39°C° 0 mm 6 m/s 750 mmHg 15%
    20:00 +38°C° 0 mm 6 m/s 750 mmHg 18%
    21:00 +36°C° 0 mm 7 m/s 751 mmHg 20%
    22:00 +35°C° 0 mm 6 m/s 751 mmHg 20%
    23:00 +35°C° 0 mm 6 m/s 751 mmHg 19%

    12 Avril, Dimanche

    Heure Température Précipitation Vent Pression Humidité
    00:00 +34°C° 0 mm 5 m/s 751 mmHg 19%
    01:00 +33°C° 0 mm 5 m/s 751 mmHg 25%
    02:00 +32°C° 0 mm 5 m/s 751 mmHg 31%
    03:00 +29°C° 0 mm 6 m/s 751 mmHg 37%
    04:00 +29°C° 0 mm 5 m/s 751 mmHg 39%
    05:00 +29°C° 0 mm 4 m/s 752 mmHg 42%
    06:00 +29°C° 0 mm 4 m/s 752 mmHg 44%
    07:00 +30°C° 0 mm 4 m/s 752 mmHg 40%
    08:00 +33°C° 0 mm 5 m/s 753 mmHg 35%
    09:00 +34°C° 0 mm 5 m/s 753 mmHg 31%
    10:00 +34°C° 0 mm 6 m/s 753 mmHg 33%
    11:00 +35°C° 0 mm 6 m/s 753 mmHg 36%
    12:00 +35°C° 0 mm 7 m/s 752 mmHg 39%
    13:00 +34°C° 0 mm 7 m/s 752 mmHg 40%
    14:00 +34°C° 0 mm 6 m/s 752 mmHg 41%
    15:00 +34°C° 0 mm 6 m/s 751 mmHg 42%
    16:00 +32°C° 0 mm 7 m/s 751 mmHg 50%
    17:00 +29°C° 0 mm 7 m/s 752 mmHg 58%
    18:00 +28°C° 0 mm 7 m/s 752 mmHg 66%
    19:00 +27°C° 0 mm 8 m/s 752 mmHg 68%
    20:00 +27°C° 0 mm 8 m/s 753 mmHg 69%
    21:00 +27°C° 0 mm 8 m/s 753 mmHg 71%
    22:00 +26°C° 0 mm 7 m/s 753 mmHg 72%
    23:00 +26°C° 0 mm 7 m/s 753 mmHg 73%
    Voir plus